Weather observations for the past three days for
Ormond Beach, Ormond Beach Municipal Airport
Metric (Imperial)
Date Time (edt) Wind (kph) Vis. (km) Weather Sky Cond. Temperature (ºC) Relative Humidity Wind Chill (°C) Heat Index (°C) Pressure Precipitation (cm)
Air Dwpt 6 hour altimeter (cm) sea level (mb) 1 hr 3 hr 6 hr
Max. Min.
05 18:50 E 15 16.09 Fair CLR 25 15 54% 26 76.2 0.0
05 17:50 E 15 16.09 Fair CLR 26 14 48% 26 76.2 0.0
05 16:50 E 20 16.09 Fair CLR 26 13 45% 26 76.2 0.0
05 15:50 E 20 16.09 Fair CLR 26 15 51% 27 76.23 0.0
05 14:50 E 13 16.09 A Few Clouds FEW075 26 15 51% 27 76.28 0.0
05 13:50 E 13 16.09 A Few Clouds FEW075 26 17 58% 27 76.3 0.0
05 12:50 E 13 16.09 Fair CLR 26 15 51% 27 76.33 0.0
05 11:50 NE 13 16.09 Fair CLR 26 16 54% 27 76.33 0.0
05 10:50 E 19 16.09 Fair CLR 25 17 61% 26 76.33 0.0
05 09:50 SE 11 16.09 Fair CLR 25 17 61% 26 76.28 0.0
05 08:50 SE 7 16.09 Fair CLR 24 18 69% 25 76.28 0.0
05 07:50 Calm 16.09 Fair CLR 17 17 100% 76.25 0.0
05 06:50 Calm 16.09 Fair CLR 14 14 100% 76.2 0.0
04 18:50 SE 17 16.09 Fair CLR 24 14 54% 25 76.2 0.0
04 17:50 E 15 G 24 16.09 Fair CLR 25 14 51% 26 76.23 0.0
04 16:50 E 20 G 31 16.09 A Few Clouds FEW046 25 15 54% 26 76.23 0.0
04 14:50 E 19 G 35 16.09 Partly Cloudy SCT048 25 15 54% 26 76.33 0.0
04 13:50 E 19 G 28 16.09 Partly Cloudy SCT048 24 15 57% 25 76.35 0.0
04 12:50 E 17 G 28 16.09 Partly Cloudy SCT044 24 15 57% 25 76.35 0.0
04 11:50 NE 20 G 33 16.09 Partly Cloudy SCT044 25 15 54% 26 76.4 0.0
04 10:50 NE 19 G 33 16.09 Partly Cloudy SCT038 24 16 61% 25 76.4 0.0
04 09:50 NE 19 16.09 Partly Cloudy SCT040 24 15 57% 25 76.35 0.0
04 08:50 NE 11 16.09 Partly Cloudy SCT040 22 16 69% 76.35 0.0
04 07:50 Calm 16.09 Partly Cloudy SCT035 19 15 78% 76.33 0.0
04 06:50 NW 7 16.09 Partly Cloudy SCT022 15 14 94% 76.28 0.0
03 18:50 N 15 11.27 Fair CLR 22 15 65% 76.3 0.0
03 17:50 N 17 G 28 11.27 Fair CLR 23 14 57% 76.28 0.0
03 16:50 N 17 G 28 11.27 Fair CLR 24 15 57% 25 76.3 0.0
03 15:50 N 17 G 28 11.27 A Few Clouds FEW038 24 14 54% 25 76.33 0.0
03 14:50 NE 19 G 30 11.27 A Few Clouds FEW038 23 15 61% 76.38 0.0
03 13:50 N 17 G 30 11.27 Partly Cloudy SCT037 23 15 61% 76.45 0.0
03 12:50 NE 28 G 37 11.27 Mostly Cloudy BKN031 22 16 69% 76.45 0.0
03 11:50 NE 28 G 37 11.27 Mostly Cloudy FEW026 BKN038 22 16 69% 76.45 0.0
03 10:50 NE 28 G 37 12.87 Partly Cloudy FEW026 SCT034 22 16 69% 76.43 0.0
03 09:50 NE 22 12.87 Mostly Cloudy BKN028 21 17 78% 76.38 0.0
03 08:50 N 15 12.87 Mostly Cloudy BKN028 18 18 100% 76.33 0.0
03 06:50 NW 11 12.87 Mostly Cloudy SCT026 BKN075 16 16 100% 76.25 0.0
Date Time (edt) Wind (kph) Vis. (km) Weather Sky Cond. Air Dwpt Max. Min. Relative Humidity Wind Chill (°C) Heat Index (°C) altimeter (cm) sea level (mb) 1 hr 3 hr 6 hr
6 hour
Temperature (ºC) Pressure Precipitation (cm)